Retour au catalogue

YUNHAI 2-2D

ActifMétéoLEO
NORAD 59283·PAYLOAD·🇨🇳 China

Lancé Mar 21, 2024 depuis Jiuquan Satellite Launch Center

Loading…

Prochains Passages (prochaines 24 heures)

TLE

FraisSource: Space-Track

Époque: Sep 14, 2026, 12:50 UTC

1 59283U 24052D   26257.53529231 -.00000087  00000-0  29600-4 0  9999
2 59283  50.0061 243.6898 0004456 178.8962 181.1963 14.28021976131162

Suivez YUNHAI 2-2D en temps réel avec AllMySat

Download on the App Store